TIANMU-1 22

Last updated on Fri Sep 11 2026 00:02:39 GMT+0000 (Coordinated Universal Time)

1 58663U 23208D 26253.59378656 .00005872 00000+0 19181-3 0 9994 2 58663 97.4568 10.2919 0004585 53.0034 307.1627 15.32128406150406
UTC large
Height (km)
Speed (km/s)
/
Latitude / Longitude
Inclination (degrees)
Orbital Period (minutes)
Azimuth
Elevation
Range (km)
Doppler Factor

Next 0 passes for location: London (51.5072 / 0.1276)

No passes found over London.
TIANMU-1 22